Tracking 28790 objects as of 19-Apr-2024
HD Live streaming from Space Station
objects crossing your sky now

EXPRESS 1

Track EXPRESS 1 now!
EXPRESS 1 is classified as:


NORAD ID: 23319
Int'l Code: 1994-067A
Perigee: 35,903.7 km
Apogee: 35,932.0 km
Inclination: 14.3 °
Period: 1,442.4 minutes
Semi major axis: 42288 km
RCS: 8.7707 m2 (large)
Launch date: October 13, 1994
Source: Commonwealth of Independent States (former USSR) (CIS)
Launch site: TYURATAM MISSILE AND SPACE COMPLEX (TTMTR)
Your satellite tracking list
Your tracking list is empty




NASA's NSSDC Master Catalog

Two Line Element Set (TLE):
1 23319U 94067A   24109.88548971 -.00000360  00000-0  00000-0 0  9990
2 23319  14.2946   7.8546 0003337 207.4459  84.3998  0.99830742107699
Source of the keplerian elements: AFSPC